Location: Brasstown Bald
(34.8693°N, 83.8103°W)
Time: 02:25:16
(UTC-04:00)

Amateur Radio Satellites - All Passes

Search period start: 27 May 2016 01:55
Search period end: 28 May 2016 01:55
Location: Brasstown Bald, 34.8693°N, 83.8103°W

Satellite Date Start Highest point End Downlink Frequencies (MHz)
Time Altitude Azimuth
SWISSCUBE 27 May 01:57:10 02:00:02 16° 66° (ENE) 02:02:53 437.505
NANOSAT C BR1 27 May 02:00:42 02:03:54 22° 290° (WNW) 02:07:07 145.865
ITUPSAT 1 27 May 02:02:48 02:05:42 16° 66° (ENE) 02:08:36 437.325
PHONESAT 2.4 27 May 02:12:17 02:15:04 28° 5° (N) 02:17:51 2401.200-2431.200
BEESAT 27 May 02:25:36 02:29:40 29° 70° (ENE) 02:33:44 436.000
JAS-2 27 May 02:28:12 02:35:39 80° 103° (ESE) 02:42:13 435.910
DANDE 27 May 02:41:44 02:44:07 11° 283° (WNW) 02:46:26 436.750
Oscar 19 27 May 02:43:30 02:48:32 52° 100° (E) 02:53:30 437.125/150
Gurwin Techsat 1B 27 May 02:59:48 03:04:26 30° 97° (E) 03:09:01 435.225
SO-50 27 May 03:01:46 03:04:18 14° 314° (NW) 03:06:51 436.795
YUBILEINY 27 May 03:17:24 03:24:26 26° 71° (ENE) 03:31:25 435.215
TISAT 1 27 May 03:17:37 03:18:56 11° 267° (W) 03:20:15 437.305
RS-15 27 May 03:21:11 03:33:30 66° 57° (ENE) 03:45:37 29.354- 29.394
ITAMSAT 1 27 May 03:24:21 03:27:56 18° 94° (E) 03:31:30 435.822/435.867
SWISSCUBE 27 May 03:32:52 03:37:24 46° 260° (W) 03:41:59 437.505
KKS-1 27 May 03:35:23 03:38:23 18° 67° (ENE) 03:41:23 437.445
ITUPSAT 1 27 May 03:38:35 03:43:07 45° 260° (W) 03:47:42 437.325
MOZHAYETS 4 27 May 03:45:11 03:48:00 16° 67° (ENE) 03:50:48
AO-7 27 May 03:48:56 03:53:36 16° 92° (E) 03:58:13 29.400- 29.500
PHONESAT 2.4 27 May 03:49:00 03:52:07 69° 20° (NNE) 03:55:13 2401.200-2431.200
ISS 27 May 03:59:49 04:00:30 10° 25° (NNE) 04:01:11 145.825
BEESAT 27 May 04:03:32 04:07:22 24° 264° (W) 04:11:13 436.000
Cosmos 2491 27 May 04:07:49 04:15:17 32° 85° (E) 04:22:44 435.465 / 435.565
STARS 27 May 04:12:41 04:16:09 23° 69° (ENE) 04:19:37 437.465
JAS-2 27 May 04:15:04 04:19:35 18° 301° (WNW) 04:23:52 435.910
Oscar 19 27 May 04:24:13 04:27:23 17° 295° (WNW) 04:30:31 437.125/150
Gurwin Techsat 1B 27 May 04:39:44 04:44:15 29° 291° (WNW) 04:48:46 435.225
Cosmos 2504 27 May 04:47:24 04:54:30 29° 73° (ENE) 05:01:49 435.465 / 435.565
ITAMSAT 1 27 May 05:02:36 05:07:33 45° 288° (WNW) 05:12:30 435.822/435.867
CUBESAT XI-V 27 May 05:08:47 05:11:17 14° 66° (ENE) 05:13:47 437.345
KKS-1 27 May 05:10:32 05:14:39 36° 262° (W) 05:18:46 437.445
YUBILEINY 27 May 05:13:07 05:21:39 60° 269° (W) 05:30:12 435.215
MOZHAYETS 4 27 May 05:20:31 05:24:48 40° 262° (W) 05:29:06
PHONESAT 2.4 27 May 05:26:20 05:28:37 19° 215° (SW) 05:30:55 2401.200-2431.200
ISS 27 May 05:34:12 05:37:27 68° 42° (NE) 05:40:41 145.825
RS-15 27 May 05:34:45 05:45:09 34° 256° (WSW) 05:55:27 29.354- 29.394
AO-7 27 May 05:38:45 05:47:10 88° 288° (WNW) 05:55:33 29.400- 29.500
STARS 27 May 05:48:38 05:52:21 26° 263° (W) 05:56:05 437.465
Cosmos 2491 27 May 06:03:16 06:11:42 48° 282° (WNW) 06:20:11 435.465 / 435.565
HORYU 2 27 May 06:31:04 06:35:30 79° 285° (WNW) 06:39:56 437.375
BRITE-PL 27 May 06:33:54 06:35:52 12° 89° (E) 06:37:46 437.365/2234.400
CUTE-I 27 May 06:35:05 06:36:56 12° 91° (E) 06:38:47 437.470
Cosmos 2504 27 May 06:39:55 06:48:09 56° 269° (W) 06:56:43 435.465 / 435.565
JUGNU 27 May 06:42:12 06:44:42 13° 167° (SSE) 06:47:11 437.505
CUBESAT XI-V 27 May 06:43:41 06:48:11 49° 261° (W) 06:52:45 437.345
AO-85 27 May 06:43:47 06:49:10 66° 116° (ESE) 06:54:32 145.980
NOAA 18 27 May 07:18:55 07:24:06 42° 99° (E) 07:29:17 137.9125
NOAA 15 27 May 07:23:11 07:28:25 57° 101° (E) 07:33:36 137.62
Cubesat XI-IV 27 May 07:25:48 07:30:50 40° 99° (E) 07:35:51 437.490
AO-7 27 May 07:33:43 07:38:45 18° 306° (NW) 07:43:49 29.400- 29.500
STRAND 1 27 May 07:46:35 07:51:32 55° 73° (ENE) 07:56:30 437.568
DOVE 4 27 May 07:53:00 07:55:35 16° 93° (E) 07:58:07 437.250
LilacSat-2 27 May 07:58:40 08:02:27 78° 282° (WNW) 08:06:13 437.200
BRITE-PL 27 May 08:09:51 08:14:49 57° 286° (WNW) 08:19:23 437.365/2234.400
CUTE-I 27 May 08:12:04 08:17:24 71° 285° (WNW) 08:22:44 437.470
AO-85 27 May 08:26:25 08:30:07 18° 312° (NW) 08:33:47 145.980
JUGNU 27 May 08:29:01 08:32:59 18° 177° (S) 08:36:57 437.505
SRMSAT 27 May 08:35:20 08:36:59 11° 165° (SSE) 08:38:38 437.500
CANX-2 27 May 08:35:50 08:38:17 15° 93° (E) 08:40:43 2200.000
GOMX 1 27 May 08:37:34 08:42:09 61° 285° (WNW) 08:46:26 467.674
PRISM 27 May 08:38:03 08:41:38 29° 71° (ENE) 08:45:15 437.425
NOAA 18 27 May 09:00:19 09:04:27 22° 294° (WNW) 09:08:35 137.9125
CUTE 1.7 + AOD 2 27 May 09:02:10 09:05:48 27° 96° (E) 09:09:26 437.475
NOAA 15 27 May 09:04:35 09:07:40 16° 296° (WNW) 09:10:44 137.62
Cubesat XI-IV 27 May 09:06:33 09:10:35 22° 293° (WNW) 09:14:38 437.490
AUBIESAT-1 27 May 09:06:48 09:09:25 22° 102° (ESE) 09:12:04 437.475
GONETS M04 27 May 09:07:15 09:14:42 31° 73° (ENE) 09:22:05
M-CUBED/EXP-1 PRIME 27 May 09:12:40 09:15:41 34° 103° (ESE) 09:18:42 437.505
CUBEBUG 2 27 May 09:21:31 09:23:21 13° 93° (E) 09:25:12 437.445
Cosmos 2499 27 May 09:23:59 09:30:41 24° 71° (ENE) 09:37:27 435.465 / 435.565
COMPASS 1 27 May 09:25:54 09:29:24 25° 96° (E) 09:32:53 437.405
AIST 1 27 May 09:27:59 09:32:21 83° 84° (E) 09:36:38
STRAND 1 27 May 09:28:21 09:30:59 14° 267° (W) 09:33:38 437.568
AAUSAT CUBESAT 2 27 May 09:29:10 09:32:24 21° 95° (E) 09:35:38 437.432
DOVE 4 27 May 09:29:31 09:33:26 34° 288° (WNW) 09:37:12 437.250
HO-68 27 May 09:30:20 09:37:26 60° 102° (ESE) 09:44:29 435.675
PCSat 27 May 09:47:32 09:52:08 29° 108° (ESE) 09:56:45 145.827
UWE-3 27 May 09:50:09 09:53:11 19° 95° (E) 09:56:15 435.000/436.395/437.385
SO-50 27 May 09:53:44 09:57:44 27° 52° (NE) 10:01:37 436.795
FUNcube-1 27 May 09:56:30 09:58:39 14° 93° (E) 10:00:49 145.935
CINEMA 3 27 May 10:03:30 10:07:31 49° 285° (WNW) 10:11:31 145.822/145.860
O/OREOS (USA 219) 27 May 10:08:43 10:13:10 55° 106° (ESE) 10:17:37 437.305
CANX-2 27 May 10:10:16 10:14:14 37° 287° (WNW) 10:18:11 2200.000
ANTELSAT 27 May 10:10:40 10:13:10 15° 68° (ENE) 10:15:39 437.575/2403.000
SEEDS 27 May 10:13:47 10:17:58 55° 285° (WNW) 10:22:07 437.485
PRISM 27 May 10:14:05 10:16:57 18° 265° (W) 10:19:50 437.425
JUGNU 27 May 10:17:36 10:21:18 17° 187° (S) 10:25:00 437.505
SRMSAT 27 May 10:21:35 10:25:24 18° 175° (S) 10:29:13 437.500
CUTE 1.7 + AOD 2 27 May 10:38:14 10:41:28 21° 290° (WNW) 10:44:43 437.475
Oscar 11 27 May 10:39:18 10:43:35 57° 100° (E) 10:47:51 145.826/435.025
AUBIESAT-1 27 May 10:41:52 10:43:46 15° 295° (WNW) 10:45:40 437.475
ZACube-1 27 May 10:52:30 10:56:42 74° 101° (E) 11:00:58 437.345
CUBEBUG 2 27 May 10:56:13 11:00:07 41° 286° (WNW) 11:04:06 437.445
COMPASS 1 27 May 11:01:33 11:04:48 22° 290° (WNW) 11:08:03 437.405
GONETS M04 27 May 11:03:27 11:11:43 50° 271° (W) 11:19:57
UNISAT 6 27 May 11:03:54 11:08:15 65° 75° (ENE) 11:12:32 437.425
AAUSAT CUBESAT 2 27 May 11:04:21 11:07:48 25° 289° (WNW) 11:11:15 437.432
HUMSAT D 27 May 11:05:26 11:08:40 21° 96° (E) 11:11:54 437.325/437.525
TIGRISAT 27 May 11:11:34 11:15:57 75° 77° (ENE) 11:20:15 435.000
NANOSAT C BR1 27 May 11:15:19 11:17:15 13° 66° (ENE) 11:19:10 145.865
Cosmos 2499 27 May 11:15:45 11:24:19 67° 267° (W) 11:33:05 435.465 / 435.565
HO-68 27 May 11:19:11 11:24:34 24° 298° (WNW) 11:29:58 435.675
UWE-3 27 May 11:26:04 11:29:37 27° 288° (WNW) 11:33:13 435.000/436.395/437.385
BEESAT 2 27 May 11:30:25 11:31:27 11° 108° (ESE) 11:32:28 435.950
PCSat 27 May 11:30:32 11:35:23 33° 303° (WNW) 11:40:16 145.827
FUNcube-1 27 May 11:31:06 11:35:01 39° 286° (WNW) 11:38:59 145.935
SO-50 27 May 11:34:12 11:38:07 28° 249° (WSW) 11:41:56 436.795
DELFI C3 27 May 11:37:26 11:41:25 58° 284° (WNW) 11:45:22 145.870
ANTELSAT 27 May 11:45:25 11:49:32 39° 261° (W) 11:53:37 437.575/2403.000
O/OREOS (USA 219) 27 May 11:50:46 11:52:54 13° 302° (WNW) 11:55:02 437.305
DUCHIFAT 1 27 May 11:52:00 11:55:46 33° 72° (ENE) 11:59:33 145.980
BEESAT 3 27 May 12:02:51 12:06:40 54° 116° (ESE) 12:10:32 437.485
SRMSAT 27 May 12:10:03 12:13:52 17° 185° (S) 12:17:39 437.500
BUGSAT 1 27 May 12:12:08 12:15:36 26° 71° (ENE) 12:19:04 437.445
ESTCUBE 1 27 May 12:14:47 12:18:29 24° 96° (E) 12:22:10 437.505/2401.250
Oscar 11 27 May 12:18:04 12:19:10 11° 295° (WNW) 12:20:17 145.826/435.025
DANDE 27 May 12:18:04 12:21:47 19° 81° (E) 12:26:12 436.750
50 SAT 27 May 12:22:36 12:25:19 19° 96° (E) 12:28:02 437.505
CUSAT 1 27 May 12:24:57 12:30:46 58° 92° (E) 12:38:03 437.405
POPSAT HIP 1 27 May 12:29:11 12:33:25 77° 258° (WSW) 12:37:40 437.405
QB50P1 27 May 12:29:37 12:33:52 74° 258° (WSW) 12:38:07 145.935-145.965
QB50P2 27 May 12:31:49 12:36:02 66° 259° (W) 12:40:15 145.880/145.840
CUBEBUG 1 27 May 12:32:32 12:36:09 25° 96° (E) 12:39:44 437.445
POLYITAN 1 27 May 12:34:18 12:38:30 64° 259° (W) 12:42:42 437.675
DX 1 27 May 12:34:40 12:37:58 21° 96° (E) 12:41:15 434.975-435.025
JAS-2 27 May 12:35:49 12:41:50 28° 64° (ENE) 12:48:10 435.910
VELOX 1 27 May 12:38:20 12:42:10 28° 97° (E) 12:45:57 145.980
HUMSAT D 27 May 12:40:48 12:44:12 25° 289° (WNW) 12:47:38 437.325/437.525
NANOSAT C BR1 27 May 12:48:30 12:52:33 45° 260° (W) 12:56:36 145.865
SPROUT 27 May 13:01:32 13:04:38 19° 95° (E) 13:07:42 437.525
BEESAT 2 27 May 13:04:58 13:08:48 48° 302° (WNW) 13:12:41 435.950
AISAT 27 May 13:13:55 13:18:21 82° 101° (E) 13:22:45 437.250
UKube-1 27 May 13:23:45 13:28:03 66° 102° (ESE) 13:32:19 .
DUCHIFAT 1 27 May 13:28:48 13:31:31 17° 266° (W) 13:34:14 145.980
AIST 2 27 May 13:35:21 13:37:58 16° 109° (ESE) 13:40:36 435.215
BEESAT 3 27 May 13:43:02 13:44:41 12° 312° (NW) 13:46:20 437.485
BUGSAT 1 27 May 13:47:40 13:50:54 21° 264° (W) 13:54:07 437.445
ESTCUBE 1 27 May 13:51:25 13:55:12 26° 290° (WNW) 13:58:58 437.505/2401.250
50 SAT 27 May 13:56:04 13:58:57 22° 289° (WNW) 14:01:50 437.505
Oscar 19 27 May 13:56:51 14:01:53 54° 73° (ENE) 14:06:57 437.125/150
DANDE 27 May 13:58:48 14:03:47 48° 285° (WNW) 14:10:21 436.750
SRMSAT 27 May 14:00:40 14:02:16 11° 195° (SSW) 14:03:52 437.500
CUSAT 1 27 May 14:08:44 14:13:32 22° 294° (WNW) 14:19:05 437.405
CUBEBUG 1 27 May 14:08:50 14:12:18 23° 290° (WNW) 14:15:44 437.445
DX 1 27 May 14:10:24 14:14:07 28° 290° (WNW) 14:17:48 434.975-435.025
VELOX 1 27 May 14:15:06 14:18:26 21° 291° (WNW) 14:21:47 145.980
Gurwin Techsat 1B 27 May 14:17:35 14:22:20 34° 70° (ENE) 14:27:06 435.225
JAS-2 27 May 14:19:16 14:26:15 55° 261° (W) 14:33:52 435.910
Cosmos 2491 27 May 14:25:01 14:27:44 12° 63° (ENE) 14:30:27 435.465 / 435.565
SPROUT 27 May 14:36:55 14:40:33 28° 289° (WNW) 14:44:11 437.525
ITAMSAT 1 27 May 14:39:16 14:43:03 21° 66° (ENE) 14:46:51 435.822/435.867
AO-7 27 May 14:45:01 14:50:16 19° 55° (NE) 14:55:31 29.400- 29.500
TISAT 1 27 May 15:01:37 15:05:42 56° 285° (WNW) 15:09:46 437.305
AIST 2 27 May 15:12:21 15:16:09 35° 304° (NW) 15:19:58 435.215
AO-85 27 May 15:20:18 15:23:53 22° 50° (NE) 15:27:14 145.980
SWISSCUBE 27 May 15:36:05 15:40:49 58° 101° (E) 15:45:32 437.505
Oscar 19 27 May 15:38:33 15:41:29 15° 267° (W) 15:44:25 437.125/150
ITUPSAT 1 27 May 15:42:06 15:46:51 59° 101° (E) 15:51:35 437.325
Gurwin Techsat 1B 27 May 15:57:59 16:02:17 25° 264° (W) 16:06:35 435.225
BEESAT 27 May 16:05:49 16:10:36 74° 284° (WNW) 16:15:22 436.000
YUBILEINY 27 May 16:14:14 16:21:41 33° 85° (E) 16:29:07 435.215
Cosmos 2491 27 May 16:17:22 16:26:09 74° 83° (E) 16:34:49 435.465 / 435.565
ITAMSAT 1 27 May 16:17:22 16:22:12 40° 261° (W) 16:27:04 435.822/435.867
AO-7 27 May 16:33:39 16:41:57 88° 252° (WSW) 16:50:19 29.400- 29.500
AO-85 27 May 17:00:24 17:04:24 32° 249° (WSW) 17:08:05 145.980
KKS-1 27 May 17:04:23 17:08:44 54° 101° (E) 17:13:02 437.445
SWISSCUBE 27 May 17:15:51 17:18:05 13° 296° (WNW) 17:20:18 437.505
MOZHAYETS 4 27 May 17:18:25 17:23:00 59° 101° (E) 17:27:34
ITUPSAT 1 27 May 17:21:59 17:24:08 13° 296° (WNW) 17:26:19 437.325
Cosmos 2504 27 May 17:23:55 17:28:59 21° 82° (E) 17:34:12 435.465 / 435.565
HORYU 2 27 May 17:25:32 17:29:54 62° 74° (ENE) 17:34:16 437.375
RS-15 27 May 17:39:51 17:50:40 57° 110° (ESE) 18:02:02 29.354- 29.394
STARS 27 May 17:40:29 17:44:50 70° 102° (ESE) 17:49:10 437.465
BRITE-PL 27 May 17:40:37 17:43:20 14° 63° (ENE) 17:46:04 437.365/2234.400
CUTE-I 27 May 17:53:22 17:56:21 15° 64° (ENE) 17:59:19 437.470
GOMX 1 27 May 18:07:24 18:08:47 11° 63° (ENE) 18:10:09 467.674
YUBILEINY 27 May 18:09:53 18:18:06 46° 283° (WNW) 18:26:23 435.215
Cosmos 2491 27 May 18:16:17 18:21:56 19° 280° (W) 18:27:36 435.465 / 435.565
AO-7 27 May 18:31:37 18:35:36 14° 268° (W) 18:39:38 29.400- 29.500
LilacSat-2 27 May 18:37:35 18:40:54 29° 73° (ENE) 18:44:13 437.200
PCSat 27 May 18:39:44 18:42:21 13° 48° (NE) 18:44:58 145.827
NOAA 15 27 May 18:39:47 18:45:01 66° 74° (ENE) 18:50:18 137.62
NOAA 18 27 May 18:41:52 18:47:13 59° 73° (ENE) 18:52:34 137.9125
KKS-1 27 May 18:43:05 18:44:48 12° 295° (WNW) 18:46:30 437.445
CUBESAT XI-V 27 May 18:43:26 18:48:03 52° 100° (E) 18:52:36 437.345
Cubesat XI-IV 27 May 18:44:29 18:49:33 48° 72° (ENE) 18:54:39 437.490
DOVE 4 27 May 18:54:58 18:57:56 15° 67° (ENE) 19:00:50 437.250
MOZHAYETS 4 27 May 18:57:51 18:59:37 12° 295° (WNW) 19:01:23
Cosmos 2504 27 May 19:14:36 19:21:37 57° 280° (W) 19:29:00 435.465 / 435.565
BRITE-PL 27 May 19:15:27 19:21:02 77° 259° (WSW) 19:26:46 437.365/2234.400
CUTE-I 27 May 19:30:38 19:35:50 60° 259° (W) 19:41:06 437.470
GOMX 1 27 May 19:40:34 19:46:04 88° 257° (WSW) 19:51:32 467.674
AUBIESAT-1 27 May 19:49:46 19:52:55 21° 67° (ENE) 19:55:54 437.475
RS-15 27 May 19:52:58 20:03:27 41° 313° (NW) 20:14:35 29.354- 29.394
CUTE 1.7 + AOD 2 27 May 19:53:15 19:55:09 13° 67° (ENE) 19:57:05 437.475
M-CUBED/EXP-1 PRIME 27 May 19:55:46 19:59:32 31° 69° (ENE) 20:03:04 437.505
HO-68 27 May 19:55:52 20:01:58 32° 65° (ENE) 20:08:06 435.675
STRAND 1 27 May 20:01:00 20:05:10 25° 96° (E) 20:09:20 437.568
LilacSat-2 27 May 20:13:04 20:15:14 15° 266° (W) 20:17:24 437.200
COMPASS 1 27 May 20:15:33 20:16:53 11° 66° (ENE) 20:18:12 437.405
PCSat 27 May 20:20:59 20:26:25 84° 248° (WSW) 20:31:49 145.827
O/OREOS (USA 219) 27 May 20:22:02 20:26:27 59° 69° (ENE) 20:30:50 437.305
CUBESAT XI-V 27 May 20:22:32 20:24:56 14° 294° (WNW) 20:27:18 437.345
NOAA 15 27 May 20:23:00 20:25:11 12° 268° (W) 20:27:22 137.62
BEESAT 3 27 May 20:24:46 20:26:32 13° 48° (NE) 20:28:18 437.485
NOAA 18 27 May 20:25:11 20:28:12 15° 267° (W) 20:31:13 137.9125
Cubesat XI-IV 27 May 20:26:22 20:29:49 18° 266° (W) 20:33:19 437.490
DOVE 4 27 May 20:29:57 20:35:08 58° 260° (W) 20:40:10 437.250
ISS 27 May 20:37:44 20:38:22 10° 126° (SE) 20:39:01 145.825
UWE-3 27 May 20:45:58 20:47:14 11° 66° (ENE) 20:48:29 435.000/436.395/437.385
CANX-2 27 May 20:59:05 21:03:17 85° 261° (W) 21:07:31 2200.000
CINEMA 3 27 May 21:00:51 21:05:39 87° 257° (WSW) 21:10:17 145.822/145.860
SEEDS 27 May 21:01:49 21:05:55 62° 76° (ENE) 21:10:03 437.485
AUBIESAT-1 27 May 21:23:44 21:27:15 26° 257° (WSW) 21:30:36 437.475
BEESAT 2 27 May 21:26:12 21:29:47 31° 56° (NE) 21:33:20 435.950
CUTE 1.7 + AOD 2 27 May 21:26:35 21:30:35 44° 261° (W) 21:34:37 437.475
Oscar 11 27 May 21:31:01 21:34:41 28° 71° (ENE) 21:38:22 145.826/435.025
M-CUBED/EXP-1 PRIME 27 May 21:31:07 21:34:02 18° 259° (W) 21:36:51 437.505
STRAND 1 27 May 21:39:45 21:44:19 33° 290° (WNW) 21:48:53 437.568
HO-68 27 May 21:42:44 21:49:25 43° 260° (W) 21:56:11 435.675
ZACube-1 27 May 21:45:09 21:49:02 36° 73° (ENE) 21:52:53 437.345
COMPASS 1 27 May 21:47:58 21:51:58 49° 261° (W) 21:56:00 437.405
AAUSAT CUBESAT 2 27 May 21:50:21 21:54:24 59° 260° (W) 21:58:30 437.432
CUBEBUG 2 27 May 21:50:22 21:54:48 80° 257° (WSW) 21:59:07 437.445
AIST 1 27 May 21:53:23 21:57:41 57° 94° (E) 22:02:01
PHONESAT 2.4 27 May 21:56:19 21:59:04 27° 147° (SSE) 22:01:47 2401.200-2431.200
PRISM 27 May 21:57:25 22:01:36 77° 102° (ESE) 22:05:43 437.425
Cosmos 2499 27 May 21:59:23 22:03:29 16° 80° (E) 22:07:43 435.465 / 435.565
BEESAT 3 27 May 22:00:40 22:04:31 52° 244° (WSW) 22:08:19 437.485
GONETS M04 27 May 22:03:49 22:11:47 40° 87° (E) 22:19:42
ISS 27 May 22:11:12 22:14:25 56° 320° (NW) 22:17:38 145.825
RS-15 27 May 22:14:36 22:20:45 15° 345° (NNW) 22:27:03 29.354- 29.394
UWE-3 27 May 22:19:00 22:23:14 53° 260° (W) 22:27:24 435.000/436.395/437.385
DELFI C3 27 May 22:19:52 22:23:39 47° 75° (ENE) 22:27:28 145.870
FUNcube-1 27 May 22:22:47 22:27:03 81° 260° (W) 22:31:14 145.935
DANDE 27 May 22:59:27 23:05:23 21° 66° (ENE) 23:10:55 436.750
UNISAT 6 27 May 22:59:52 23:02:40 17° 94° (E) 23:05:29 437.425
CUSAT 1 27 May 23:04:24 23:11:23 38° 72° (ENE) 23:17:11 437.405
BEESAT 2 27 May 23:04:42 23:07:22 17° 250° (WSW) 23:10:01 435.950
TIGRISAT 27 May 23:07:07 23:10:13 19° 95° (E) 23:13:20 435.000
Oscar 11 27 May 23:07:39 23:10:47 20° 265° (W) 23:13:57 145.826/435.025
ESTCUBE 1 27 May 23:12:04 23:14:45 16° 67° (ENE) 23:17:26 437.505/2401.250
ZACube-1 27 May 23:22:59 23:25:25 15° 266° (W) 23:27:49 437.345
CUBEBUG 1 27 May 23:26:16 23:28:47 15° 67° (ENE) 23:31:19 437.445
HUMSAT D 27 May 23:27:58 23:31:58 55° 260° (W) 23:35:58 437.325/437.525
DX 1 27 May 23:28:20 23:30:20 13° 65° (ENE) 23:32:19 434.975-435.025
PHONESAT 2.4 27 May 23:32:37 23:35:42 52° 342° (NNW) 23:38:45 2401.200-2431.200
VELOX 1 27 May 23:33:08 23:36:08 18° 67° (ENE) 23:39:08 145.980
AIST 2 27 May 23:36:23 23:40:26 49° 58° (ENE) 23:44:26 435.215
ANTELSAT 27 May 23:39:54 23:44:06 50° 100° (E) 23:48:21 437.575/2403.000
Cosmos 2499 27 May 23:48:23 23:55:31 72° 278° (W) 00:03:12 435.465 / 435.565
SPROUT 27 May 23:54:15 23:55:08 11° 65° (ENE) 23:55:59 437.525
GONETS M04 28 May 00:00:25 00:08:28 39° 284° (WNW) 00:16:32
SO-50 28 May 00:05:11 00:08:40 20° 109° (ESE) 00:12:09 436.795
AISAT 28 May 00:07:45 00:12:02 46° 73° (ENE) 00:16:19 437.250
UKube-1 28 May 00:15:01 00:18:57 35° 72° (ENE) 00:22:54 .
POPSAT HIP 1 28 May 00:18:03 00:21:15 21° 96° (E) 00:24:27 437.405
QB50P1 28 May 00:18:23 00:21:39 22° 96° (E) 00:24:54 145.935-145.965
QB50P2 28 May 00:20:35 00:24:03 25° 96° (E) 00:27:30 145.880/145.840
POLYITAN 1 28 May 00:23:01 00:26:31 25° 97° (E) 00:29:59 437.675
50 SAT 28 May 00:30:03 00:33:40 82° 258° (WSW) 00:37:19 437.505
RS-15 28 May 00:33:11 00:40:44 18° 23° (NNE) 00:48:19 29.354- 29.394
UNISAT 6 28 May 00:35:33 00:39:27 34° 287° (WNW) 00:43:23 437.425
NANOSAT C BR1 28 May 00:36:15 00:40:04 34° 98° (E) 00:43:52 145.865
DANDE 28 May 00:40:45 00:49:11 78° 264° (W) 00:56:30 436.750
TIGRISAT 28 May 00:43:09 00:46:54 30° 288° (WNW) 00:50:41 435.000
CUSAT 1 28 May 00:46:45 00:53:18 34° 274° (W) 00:58:48 437.405
ESTCUBE 1 28 May 00:46:54 00:51:10 42° 261° (W) 00:55:28 437.505/2401.250
CUBEBUG 1 28 May 01:00:29 01:04:41 42° 261° (W) 01:08:55 437.445
DX 1 28 May 01:01:48 01:06:03 49° 260° (W) 01:10:19 434.975-435.025
VELOX 1 28 May 01:08:12 01:12:17 35° 262° (W) 01:16:25 145.980
PHONESAT 2.4 28 May 01:10:03 01:12:48 27° 359° (N) 01:15:33 2401.200-2431.200
DUCHIFAT 1 28 May 01:14:27 01:18:38 83° 285° (WNW) 01:22:47 145.980
AIST 2 28 May 01:16:57 01:18:26 12° 252° (WSW) 01:19:54 435.215
ANTELSAT 28 May 01:18:39 01:20:23 12° 294° (WNW) 01:22:06 437.575/2403.000
SPROUT 28 May 01:26:19 01:30:33 58° 260° (W) 01:34:47 437.525
BUGSAT 1 28 May 01:31:43 01:35:44 69° 102° (ESE) 01:39:43 437.445
JAS-2 28 May 01:34:07 01:40:20 30° 93° (E) 01:45:55 435.910
SO-50 28 May 01:44:10 01:48:49 43° 304° (NW) 01:53:30 436.795
AISAT 28 May 01:46:35 01:48:42 13° 267° (W) 01:50:50 437.250
